GW2255 Weather Reports


Display with metric or nautical units.
time (UTC)temp
F
wind
direction
speed
MPH
gust
MPH
rain 1hr
in
rain 24hr
in
rain mn
in
humidity
%
barometer
mb
20260505221559 51 15 4.0 12.0 0.00 0.00 0.00 75 1013.1
20260505214609 51 21 4.0 10.0 0.00 0.00 0.00 75 1013.1
20260505213054 51 36 3.0 11.0 0.00 0.00 0.00 75 1013.0
20260505211601 52 22 2.0 10.0 0.00 0.00 0.00 75 1013.0
20260505204603 52 42 5.0 13.0 0.00 0.00 0.00 79 1013.0
20260505203106 53 5 4.0 9.0 0.00 0.00 0.00 79 1012.9
20260505201555 53 40 2.0 7.0 0.00 0.00 0.00 79 1012.8
20260505200106 54 10 2.0 8.0 0.00 0.00 0.00 78 1012.8
20260505194551 54 21 3.0 10.0 0.00 0.00 0.00 76 1012.6
20260505193102 55 86 2.0 15.0 0.00 0.00 0.00 73 1012.4
20260505191557 55 40 2.0 9.0 0.00 0.00 0.00 70 1012.3
20260505190054 56 16 4.0 12.0 0.00 0.00 0.00 69 1012.1
20260505184557 56 5 6.0 12.0 0.00 0.00 0.00 66 1011.9
20260505183057 56 0 1.0 5.0 0.00 0.00 0.00 63 1011.7
20260505181559 56 38 1.0 4.0 0.00 0.00 0.00 62 1011.7
20260505180058 56 0 2.0 6.0 0.00 0.00 0.00 62 1011.5
20260505174602 56 98 2.0 6.0 0.00 0.00 0.00 61 1011.5
20260505173055 56 109 2.0 6.0 0.00 0.00 0.00 60 1011.6
20260505171556 57 107 3.0 8.0 0.00 0.00 0.00 60 1011.6
20260505170055 57 106 3.0 6.0 0.00 0.00 0.00 60 1011.6
20260505164554 57 100 3.0 6.0 0.00 0.00 0.00 60 1011.6
20260505163054 57 148 2.0 9.0 0.00 0.00 0.00 59 1011.7
20260505161551 58 133 4.0 10.0 0.00 0.00 0.00 58 1011.7
20260505153055 59 110 3.0 8.0 0.00 0.00 0.00 60 1011.8
20260505151556 58 94 5.0 8.0 0.00 0.00 0.00 61 1011.9
20260505150106 57 136 4.0 9.0 0.00 0.00 0.00 63 1012.0
20260505130109 62 37 3.0 10.0 0.00 0.00 0.00 48 1012.2
20260505124558 62 349 1.0 9.0 0.00 0.00 0.00 49 1012.1
20260505123057 62 325 3.0 9.0 0.00 0.00 0.00 50 1012.0
20260505121559 62 80 2.0 9.0 0.00 0.00 0.00 49 1012.1
20260505120113 61 132 3.0 9.0 0.00 0.00 0.00 47 1012.2
20260505114555 63 29 3.0 9.0 0.00 0.00 0.00 45 1012.2
20260505113116 62 0 2.0 9.0 0.00 0.00 0.00 51 1012.2
20260505111556 61 0 2.0 8.0 0.00 0.00 0.00 54 1012.2
20260505110123 62 55 4.0 10.0 0.00 0.00 0.00 51 1012.5
20260505101558 60 0 3.0 10.0 0.00 0.00 0.00 56 1012.9
20260505100053 60 67 1.0 10.0 0.00 0.00 0.00 56 1013.0
20260505094618 59 34 2.0 8.0 0.00 0.00 0.00 58 1013.1
20260505093058 57 48 2.0 8.0 0.00 0.00 0.00 63 1013.1
20260505091605 57 346 2.0 9.0 0.00 0.00 0.00 62 1013.0
20260505090104 57 5 2.0 10.0 0.00 0.00 0.00 60 1012.9
20260505084600 57 344 2.0 6.0 0.00 0.00 0.00 62 1012.9
20260505083107 55 344 3.0 9.0 0.00 0.00 0.00 63 1013.1
20260505081604 56 352 4.0 10.0 0.00 0.00 0.00 67 1013.2
20260505080053 54 310 4.0 10.0 0.00 0.00 0.00 71 1013.2
20260505074557 54 42 4.0 10.0 0.00 0.00 0.00 74 1013.3
20260505073104 53 45 3.0 10.0 0.00 0.00 0.00 77 1013.1
20260505071553 52 22 2.0 7.0 0.00 0.00 0.00 79 1013.1
20260505070054 50 25 2.0 8.0 0.00 0.00 0.00 84 1013.4
20260505064555 48 47 2.0 8.0 0.00 0.00 0.00 87 1013.6
20260505063058 48 18 1.0 5.0 0.00 0.00 0.00 87 1013.6
20260505061601 48 5 2.0 8.0 0.00 0.00 0.00 87 1013.7
20260505054558 47 31 1.0 3.0 0.00 0.00 0.00 86 1013.6
20260505053059 47 0 2.0 5.0 0.00 0.00 0.00 85 1013.5
20260505051555 47 0 1.0 3.0 0.00 0.00 0.00 85 1013.6
20260505041556 49 0 1.0 3.0 0.00 0.00 0.00 84 1013.4
20260505040104 49 0 0.0 3.0 0.00 0.00 0.00 84 1013.5
20260505034555 49 0 0.0 3.0 0.00 0.00 0.00 84 1013.6
20260505033052 49 34 0.0 2.0 0.00 0.00 0.00 84 1013.7
20260505031558 50 0 0.0 3.0 0.00 0.00 0.00 84 1013.7
20260505030059 50 83 1.0 3.0 0.00 0.00 0.00 84 1013.9
20260505024555 50 43 0.0 4.0 0.00 0.00 0.00 84 1013.7
20260505023055 50 0 1.0 4.0 0.00 0.00 0.00 84 1013.9
20260505021556 50 38 1.0 4.0 0.00 0.00 0.00 84 1013.9
20260505020054 50 56 1.0 4.0 0.00 0.00 0.00 84 1014.0
20260505014604 50 0 1.0 4.0 0.00 0.00 0.00 85 1014.1
20260505013055 50 27 0.0 4.0 0.00 0.00 0.00 85 1014.2
20260505011556 50 84 1.0 5.0 0.00 0.00 0.00 84 1014.3
20260505010056 50 62 2.0 5.0 0.00 0.00 0.00 84 1014.4
20260505004557 50 47 2.0 6.0 0.00 0.00 0.00 83 1014.5
20260505003054 51 72 2.0 7.0 0.00 0.00 0.00 83 1014.6
20260505001553 51 0 3.0 8.0 0.00 0.00 0.00 83 1014.8
20260505000057 51 95 2.0 8.0 0.00 0.00 0.00 82 1014.9
20260504234554 51 55 3.0 9.0 0.00 0.00 0.00 82 1015.0
20260504233056 51 65 1.0 7.0 0.00 0.00 0.00 82 1014.9
20260504231553 51 0 3.0 8.0 0.00 0.00 0.00 82 1014.9
20260504230055 51 71 1.0 4.0 0.00 0.00 0.00 81 1014.9
20260504224555 52 60 2.0 8.0 0.00 0.00 0.00 81 1015.0
20260504223053 52 19 4.0 9.0 0.00 0.00 0.00 80 1014.8